Weather History for Sioux City, IA

Change the Weather History Date:

Wednesday, February 19, 2014

  Actual Average Record
Temperature  
Mean Temperature 39 °F 26 °F  
Max Temperature 59 °F 36 °F 69 °F (1996)
Min Temperature 18 °F 17 °F -15 °F (1936)
Degree Days  
Heating Degree Days 26 39  
Month to date heating degree days 882 785  
Since 1 July heating degree days 5197 4961  
Cooling Degree Days 0 0  
Month to date cooling degree days 0 0  
Year to date cooling degree days 0 0  
Moisture  
Dew Point 24 °F    
Average Humidity 65    
Maximum Humidity 92    
Minimum Humidity 37    
Precipitation  
Precipitation 0.00 in 0.02 in 0.95 in (1954)
Month to date precipitation 0.30 0.40  
Year to date precipitation 0.49 1.02  
Snow  
Snow 0.00 in 0.20 in 4.00 in (1917)
Month to date snowfall 4.6 4.5  
Since 1 July snowfall 9.9 24.4  
Snow Depth 0.00 in    
Sea Level Pressure  
Sea Level Pressure 29.79 in    
Wind  
Wind Speed 7 mph (SE)    
Max Wind Speed 17 mph    
Max Gust Speed 28 mph    
Visibility 10 miles    
Events      
T = Trace of Precipitation, MM = Missing Value Source: NWS Daily Summary

Daily Weather History Graph

Daily Weather History Graph

Search for Another Location

Airport:

Trip Planner

Search our weather history database for the weather conditions in past years. The results will help you decide how hot, cold, wet, or windy it might be!

Date:

Astronomy

Feb. 19, 2014 Rise Set
Actual Time 7:16 AM CST 6:03 PM CST
Civil Twilight 6:47 AM CST 6:31 PM CST
Nautical Twilight 6:14 AM CST 7:04 PM CST
Astronomical Twilight 5:42 AM CST 7:36 PM CST
Moon 11:04 PM CST (2/19) 9:16 AM CST (2/19)
Length of Visible Light 11h 43m
Length of Day
10h 46m
Waning Gibbous, 79% of the Moon is Illuminated
Feb 19
Waning Gibbous
Feb 22
Last Quarter
Mar 1
New
Mar 8
First Quarter
Mar 16
Full

Hourly Weather History & Observations

Time (CST) Temp. Windchill Dew Point Humidity Pressure Visibility Wind Dir Wind Speed Gust Speed Precip Events Conditions
12:52 AM 28.0 °F 20.0 °F 26.1 °F 92% 29.94 in 10.0 mi West 8.1 mph - N/A   Clear
1:52 AM 28.9 °F 23.9 °F 25.0 °F 85% 29.94 in 10.0 mi WNW 4.6 mph - N/A   Clear
2:52 AM 26.1 °F - 23.0 °F 88% 29.93 in 10.0 mi Calm Calm - N/A   Clear
3:52 AM 26.1 °F - 24.1 °F 92% 29.92 in 10.0 mi Calm Calm - N/A   Clear
4:52 AM 25.0 °F 19.3 °F 21.9 °F 88% 29.93 in 10.0 mi East 4.6 mph - N/A   Clear
5:52 AM 21.0 °F 16.2 °F 19.0 °F 92% 29.93 in 10.0 mi East 3.5 mph - N/A   Clear
6:52 AM 21.0 °F 16.2 °F 18.0 °F 88% 29.93 in 10.0 mi East 3.5 mph - N/A   Clear
7:52 AM 21.0 °F - 19.0 °F 92% 29.94 in 10.0 mi Calm Calm - N/A   Clear
8:52 AM 27.0 °F 21.6 °F 24.1 °F 89% 29.93 in 10.0 mi ESE 4.6 mph - N/A   Clear
9:52 AM 36.0 °F 32.1 °F 28.0 °F 73% 29.91 in 10.0 mi SE 4.6 mph - N/A   Clear
10:52 AM 45.0 °F 41.2 °F 28.0 °F 52% 29.89 in 10.0 mi SSE 6.9 mph - N/A   Clear
11:52 AM - - - N/A% 29.83 in - North - - N/A   Unknown
12:52 PM - - - N/A% 29.78 in - North - - N/A   Unknown
1:52 PM - - - N/A% 29.74 in - North - - N/A   Unknown
2:52 PM - - - N/A% 29.72 in - North - - N/A   Unknown
3:52 PM - - - N/A% 29.69 in - North - - N/A   Unknown
4:52 PM - - - N/A% 29.66 in - North - - N/A   Unknown
5:52 PM 46.9 °F - 21.9 °F 37% 29.68 in 10.0 mi SSE 16.1 mph - N/A   Unknown
6:52 PM 45.0 °F 37.9 °F 19.9 °F 37% 29.67 in 10.0 mi SSE 16.1 mph 20.7 mph N/A   Clear
7:52 PM 43.0 °F 36.4 °F 23.0 °F 45% 29.66 in 10.0 mi SE 12.7 mph - N/A   Clear
8:52 PM 42.1 °F 34.5 °F 26.1 °F 53% 29.66 in 10.0 mi SSE 15.0 mph 20.7 mph N/A   Clear
9:52 PM 39.9 °F 33.9 °F 27.0 °F 60% 29.65 in 10.0 mi SSE 9.2 mph - N/A   Partly Cloudy
10:52 PM 39.0 °F 32.3 °F 28.9 °F 67% 29.62 in 10.0 mi SE 10.4 mph - N/A   Clear
11:52 PM 37.0 °F - 28.0 °F 70% 29.61 in 10.0 mi Calm Calm - N/A   Scattered Clouds